867  
ASUS45 KSLC 211710  
RWRUT  
 
UTAH REGIONAL WEATHER ROUNDUP  
NATIONAL WEATHER SERVICE SALT LAKE CITY UT  
1100 AM MDT THU OCT 21 2021  
 
UTZ101>105-107>111-211800-  
 
NORTHERN UTAH  
 
CITY SKY/WX TMP DP RH WIND PRES REMARKS
 
BRIGHAM CITY SUNNY 51 40 66 CALM 30.31S  
DUGWAY SUNNY 51 39 63 SE1 30.30S  
HILL AFB SUNNY 54 33 46 E10 30.30R  
LOGAN SUNNY 47 39 74 NW3 30.30S  
OGDEN SUNNY 57 36 45 S3 30.30S  
SALT LAKE CITY MOSUNNY 56 37 49 CALM 30.30S  
TOOELE VALLEY SUNNY 54 43 66 CALM 30.31F  
WENDOVER SUNNY 51 39 63 E6 30.31R  
HEBER CITY N/A 46 32 57 CALM 30.34F  
WEST JORDAN SUNNY 55 41 58 SE12 30.32S  
 

 
 
UTZ024>027-106-112>120-211800-  
 
CENTRAL/NORTHEAST UTAH  
 
CITY SKY/WX TMP DP RH WIND PRES REMARKS
 
PROVO AIRPORT SUNNY 51 40 65 MISG 30.33S  
MOAB/CANYONLAN PTSUNNY 51 37 58 NW5 30.37  
DELTA SUNNY 54 34 47 E8 30.32S  
MANTI N/A 47 37 68 CALM 30.37F  
PRICE SUNNY 50 37 61 CALM 30.40S  
RICHFIELD SUNNY 52 30 43 S7 30.34F  
DUCHESNE SUNNY 46 37 71 CALM 30.41S  
VERNAL MOSUNNY 45 39 79 CALM 30.41S  
 

 
 
UTZ121>131-211800-  
 
SOUTHERN UTAH  
 
CITY SKY/WX TMP DP RH WIND PRES REMARKS
 
BRYCE CANYON SUNNY 50 25 37 SE10 30.43S  
CEDAR CITY SUNNY 55 32 41 E3 30.34S  
MILFORD SUNNY 57 28 33 S9 30.31R  
PANGUITCH SUNNY 41 25 52 CALM 30.43S  
ST GEORGE SUNNY 55 33 43 CALM 30.30S  
HANKSVILLE SUNNY 48 34 57 CALM 30.41F  
KANAB SUNNY 61 30 31 CALM 30.38S  
BLANDING N/A 53 25 33 S6 30.47F  
 

 
 
REGIONAL REPORTS COLORADO/ARIZONA  
 
CITY SKY/WX TMP DP RH WIND PRES REMARKS
 
CRAIG, CO MOSUNNY 49 32 52 E10 30.40S  
GRAND JUNCTION MOSUNNY 50 32 50 SE10 30.39F  
RIFLE, CO MOSUNNY 43 30 60 SW3 30.42S  
MONTROSE, CO MOSUNNY 49 31 49 NW6 30.40F  
CORTEZ, CO MOSUNNY 54 25 32 CALM 30.39F  
COLORADO CITY N/A 64 32 29 CALM 30.35S  
PAGE, AZ MOSUNNY 55 31 39 NW6 30.36R  
GRAND CANYON SUNNY 59 28 30 CALM 30.40R  
KINGMAN, AZ MOSUNNY 64 33 31 N6 30.26R  
FLAGSTAFF, AZ SUNNY 56 28 34 VRB6 30.41S  
 

 
 
REGIONAL REPORTS NEVADA/IDAHO/WYOMING  
 
CITY SKY/WX TMP DP RH WIND PRES REMARKS
 
LAS VEGAS, NV PTSUNNY 66 30 26 CALM 30.23S  
ELY, NY SUNNY 53 25 33 S8 30.33F  
ELKO, NV SUNNY 54 25 32 CALM 30.27F  
POCATELLO, ID SUNNY 58 38 47 VRB5 30.26S  
BURLEY, ID SUNNY 60 38 43 SE12 30.22F  
EVANSTON, WY SUNNY 48 24 39 VRB5 30.38R  
ROCK SPRINGS, MOSUNNY 46 32 58 SW5 30.37F  
KEMMERER, WY MOSUNNY 46 27 46 CALM 30.39S  
 

 
 
 
CLICK HERE TO GO TO PREVIOUS BULLETINS.

The Nexlab UT Page Main Text Page